EST,Max TemperatureF,Mean TemperatureF,Min TemperatureF,Max Dew PointF,MeanDew PointF,Min DewpointF,Max Humidity, Mean Humidity, Min Humidity, Max Sea Level PressureIn, Mean Sea Level PressureIn, Min Sea Level PressureIn, Max VisibilityMiles, Mean VisibilityMiles, Min VisibilityMiles, Max Wind SpeedMPH, Mean Wind SpeedMPH, Max Gust SpeedMPH,PrecipitationIn, CloudCover, Events, WindDirDegrees
2012-12-1,62,47,32,45,38,32,100,82,48,30.40,30.33,30.29,10,9,3,8,1,,0.00,1,,213
2012-12-2,66,49,32,50,42,32,100,81,52,30.35,30.30,30.23,10,8,5,16,2,23,0.00,3,,228
2012-12-3,68,56,44,50,47,43,100,76,49,30.33,30.28,30.23,10,10,10,8,1,17,0.00,1,,236
2012-12-4,68,54,39,54,46,39,100,81,52,30.31,30.24,30.18,10,10,6,14,1,22,0.00,7,Rain,237
2012-12-5,60,45,28,57,38,27,100,69,29,30.32,30.24,30.17,10,10,2,9,4,,0.05,3,Rain,330
2012-12-6,48,38,28,45,39,28,100,88,66,30.22,30.17,30.12,10,10,5,6,1,,0.01,6,Rain,63
2012-12-7,59,49,39,48,45,39,100,89,67,30.12,30.06,29.98,10,8,0,0,0,,0.00,6,Fog,-1
2012-12-8,64,56,48,54,50,48,100,87,59,30.03,30.00,29.96,10,9,5,10,1,,0.00,7,Rain,239
2012-12-9,66,58,50,59,55,50,100,92,64,30.07,30.01,29.92,10,6,0,12,1,17,0.09,8,Fog-Rain,209
2012-12-10,55,47,39,55,51,36,100,98,81,29.92,29.79,29.68,10,5,0,15,2,23,0.99,6,Fog-Rain,283
2012-12-11,39,34,28,36,30,27,100,84,65,30.23,30.09,29.91,10,9,5,8,4,,0.00,6,,311
2012-12-12,46,35,24,30,27,19,100,82,34,30.35,30.29,30.23,10,8,2,6,0,,0.00,0,,85
2012-12-13,53,38,23,34,28,23,100,83,44,30.40,30.34,30.30,10,9,7,4,0,,0.00,1,,310
2012-12-14,53,38,23,36,29,21,100,84,44,30.41,30.32,30.23,10,10,8,5,0,,0.00,0,,190
2012-12-15,57,44,32,45,35,30,100,77,38,30.24,30.12,30.00,10,10,1,5,0,,0.05,3,Rain,178
2012-12-16,53,48,44,54,49,45,100,99,82,30.03,29.93,29.84,10,7,1,8,1,,0.08,6,Rain,84
2012-12-17,50,46,41,50,46,41,100,100,87,29.85,29.76,29.64,10,6,0,7,0,26,0.20,6,Fog-Rain-Thunderstorm,236
2012-12-18,50,40,28,45,36,28,100,84,50,29.96,29.87,29.70,10,8,0,12,4,18,0.00,4,Fog-Rain,252
2012-12-19,55,40,26,41,34,25,100,87,54,30.11,30.06,29.96,10,10,6,5,0,,0.00,2,,200
2012-12-20,50,41,32,48,39,27,100,84,61,30.06,29.78,29.56,10,7,1,22,4,31,0.54,6,Rain,169
2012-12-21,35,32,28,30,23,18,93,71,55,30.10,29.87,29.72,10,7,1,18,12,31,1.67,7,Rain-Snow,266
2012-12-22,39,30,21,23,19,16,100,69,45,30.29,30.21,30.11,10,10,10,12,6,,0.00,2,,247
2012-12-23,46,32,17,37,26,16,100,84,43,30.18,30.11,30.03,10,8,2,9,1,,0.10,2,Rain,236
2012-12-24,44,40,37,45,41,37,100,100,100,30.03,29.92,29.84,10,2,0,4,0,,0.30,7,Fog-Rain,70
2012-12-25,46,42,39,45,41,39,100,96,81,30.09,30.01,29.90,10,5,0,8,1,,0.04,7,Fog-Rain,65
2012-12-26,46,39,32,46,39,27,100,92,80,29.91,29.65,29.47,10,6,2,17,9,24,0.76,6,Rain-Snow,286
2012-12-27,32,31,30,28,27,25,87,82,75,30.14,30.08,29.92,10,10,7,13,6,18,0.00,8,Rain,287
2012-12-28,37,34,30,36,29,27,100,83,70,30.15,30.03,29.78,10,10,5,7,1,,0.01,7,Rain,75
2012-12-29,39,34,30,37,31,21,100,87,69,30.20,29.90,29.71,10,7,2,14,6,21,0.26,6,Rain-Snow,264
2012-12-30,35,29,23,25,20,18,100,74,52,30.48,30.39,30.21,10,10,5,13,5,18,0.01,4,Rain,274
2012-12-31,37,28,19,32,25,18,100,83,60,30.39,30.28,30.14,10,10,7,6,0,,0.00,3,,213